GW1728 Weather Reports


time (UTC)temp
C
wind
direction
speed
KPH
gust
KPH
rain 1hr
cm
rain 24hr
cm
rain mn
cm
humidity
%
barometer
mb
20260503020805 17 17 1.6 3.2 0.00 0.00 0.00 40 1016.4
20260503020303 17 19 3.2 3.2 0.00 0.00 0.00 39 1016.3
20260503015759 17 34 3.2 3.2 0.00 0.00 0.00 37 1016.3
20260503015256 17 53 0.0 0.0 0.00 0.00 0.00 37 1016.4
20260503014752 17 33 0.0 0.0 0.00 0.00 0.00 35 1016.2
20260503014250 17 31 0.0 0.0 0.00 0.00 0.00 36 1016.3
20260503013747 17 30 0.0 0.0 0.00 0.00 0.00 36 1016.2
20260503013244 18 31 0.0 0.0 0.00 0.00 0.00 35 1016.5
20260503012741 18 31 0.0 1.6 0.00 0.00 0.00 33 1016.6
20260503012239 18 18 0.0 0.0 0.00 0.00 0.00 33 1016.5
20260503011735 19 37 0.0 0.0 0.00 0.00 0.00 33 1016.5
20260503011232 18 37 0.0 0.0 0.00 0.00 0.00 33 1016.6
20260503010728 18 48 1.6 1.6 0.00 0.00 0.00 33 1016.6
20260503010225 19 81 0.0 1.6 0.00 0.00 0.00 33 1016.6
20260503005723 18 56 1.6 1.6 0.00 0.00 0.00 33 1016.4
20260503005220 18 47 4.8 4.8 0.00 0.00 0.00 34 1016.6
20260503004716 18 50 4.8 4.8 0.00 0.00 0.00 34 1016.6
20260503004215 18 24 4.8 8.0 0.00 0.00 0.00 34 1016.6
20260503003711 18 51 8.0 9.7 0.00 0.00 0.00 34 1016.7
20260503003208 18 358 3.2 4.8 0.00 0.00 0.00 33 1016.7
20260503002705 18 349 1.6 1.6 0.00 0.00 0.00 33 1016.8
20260503002202 18 11 4.8 4.8 0.00 0.00 0.00 34 1016.9
20260503001658 18 292 0.0 0.0 0.00 0.00 0.00 33 1016.9
20260503001154 19 356 6.4 8.0 0.00 0.00 0.00 33 1016.9
20260503000652 19 293 3.2 3.2 0.00 0.00 0.00 33 1016.9
20260503000149 19 231 0.0 0.0 0.00 0.00 0.00 33 1016.9
20260502235646 20 207 3.2 3.2 0.00 0.00 0.00 33 1017.1
20260502235144 20 65 0.0 1.6 0.00 0.00 0.00 32 1017.2
20260502234640 20 156 1.6 3.2 0.00 0.00 0.00 32 1017.2
20260502234137 20 167 0.0 0.0 0.00 0.00 0.00 32 1017.3
20260502233633 20 150 6.4 9.7 0.00 0.00 0.00 32 1017.2
20260502233130 20 251 0.0 1.6 0.00 0.00 0.00 31 1017.3
20260502232626 20 253 1.6 1.6 0.00 0.00 0.00 31 1017.5
20260502232124 20 233 4.8 4.8 0.00 0.00 0.00 31 1017.6
20260502231620 20 352 1.6 3.2 0.00 0.00 0.00 32 1017.7
20260502231118 20 120 1.6 3.2 0.00 0.00 0.00 33 1017.5
20260502230616 20 4 8.0 11.3 0.00 0.00 0.00 32 1017.7
20260502230114 20 168 0.0 0.0 0.00 0.00 0.00 32 1017.9
20260502225609 20 48 4.8 4.8 0.00 0.00 0.00 33 1017.8
20260502225107 20 97 4.8 4.8 0.00 0.00 0.00 32 1017.8
20260502224603 19 82 4.8 4.8 0.00 0.00 0.00 33 1017.7
20260502224100 19 287 1.6 3.2 0.00 0.00 0.00 33 1017.9
20260502223558 20 19 8.0 9.7 0.00 0.00 0.00 34 1018.0
20260502223056 20 38 12.9 14.5 0.00 0.00 0.00 34 1018.3
20260502222553 19 344 8.0 9.7 0.00 0.00 0.00 33 1018.2
20260502222049 19 323 3.2 4.8 0.00 0.00 0.00 33 1018.2
20260502221545 19 6 9.7 9.7 0.00 0.00 0.00 33 1018.3
20260502221043 19 8 9.7 9.7 0.00 0.00 0.00 34 1018.2
20260502220538 19 3 9.7 11.3 0.00 0.00 0.00 33 1018.6
20260502220035 19 7 11.3 20.9 0.00 0.00 0.00 33 1018.4
20260502215532 18 339 3.2 4.8 0.00 0.00 0.00 35 1018.8
20260502215029 18 302 0.0 0.0 0.00 0.00 0.00 34 1018.8
20260502214526 20 22 11.3 11.3 0.00 0.00 0.00 34 1018.8
20260502214024 19 357 6.4 9.7 0.00 0.00 0.00 35 1018.7
20260502213520 18 48 3.2 3.2 0.00 0.00 0.00 34 1018.7
20260502213018 18 9 8.0 9.7 0.00 0.00 0.00 36 1019.0
20260502212517 19 22 8.0 11.3 0.00 0.00 0.00 35 1019.0
20260502212014 19 315 8.0 9.7 0.00 0.00 0.00 34 1019.0
20260502211509 19 13 6.4 8.0 0.00 0.00 0.00 34 1019.4
20260502211007 19 348 6.4 9.7 0.00 0.00 0.00 34 1019.1
20260502210504 19 28 11.3 12.9 0.00 0.00 0.00 34 1019.0
20260502210001 18 20 11.3 11.3 0.00 0.00 0.00 35 1019.1
20260502205456 19 340 3.2 4.8 0.00 0.00 0.00 35 1019.1
20260502204954 20 24 8.0 11.3 0.00 0.00 0.00 34 1019.2
20260502204451 19 350 4.8 8.0 0.00 0.00 0.00 34 1019.4
20260502203949 18 47 9.7 9.7 0.00 0.00 0.00 34 1019.4
20260502203446 18 29 8.0 9.7 0.00 0.00 0.00 35 1019.6
20260502202942 18 30 9.7 11.3 0.00 0.00 0.00 36 1019.5
20260502202439 17 48 0.0 0.0 0.00 0.00 0.00 35 1019.5
20260502201937 18 46 9.7 11.3 0.00 0.00 0.00 34 1019.6
20260502201433 18 28 4.8 4.8 0.00 0.00 0.00 35 1019.7
20260502200930 18 346 3.2 3.2 0.00 0.00 0.00 35 1019.6
20260502200425 18 55 8.0 12.9 0.00 0.00 0.00 35 1019.7
20260502195923 18 326 8.0 9.7 0.00 0.00 0.00 34 1019.7
20260502195420 18 28 12.9 14.5 0.00 0.00 0.00 34 1019.9
20260502194916 18 316 1.6 1.6 0.00 0.00 0.00 34 1019.9
20260502194414 18 19 11.3 11.3 0.00 0.00 0.00 35 1019.9
20260502193909 18 7 3.2 4.8 0.00 0.00 0.00 35 1020.0
20260502193407 18 357 8.0 9.7 0.00 0.00 0.00 36 1020.0
20260502192902 18 35 11.3 14.5 0.00 0.00 0.00 34 1020.1
20260502192359 19 51 9.7 12.9 0.00 0.00 0.00 35 1020.0
20260502191856 18 304 1.6 4.8 0.00 0.00 0.00 35 1020.2
20260502191354 18 248 1.6 1.6 0.00 0.00 0.00 35 1020.1
20260502190851 19 306 4.8 4.8 0.00 0.00 0.00 34 1020.4
20260502190348 18 13 8.0 8.0 0.00 0.00 0.00 35 1020.3
20260502185844 18 8 9.7 12.9 0.00 0.00 0.00 35 1020.4
20260502185340 18 6 3.2 8.0 0.00 0.00 0.00 36 1020.3
20260502184837 18 16 6.4 8.0 0.00 0.00 0.00 36 1020.3
20260502184333 18 13 4.8 8.0 0.00 0.00 0.00 36 1020.4
20260502183829 18 25 3.2 3.2 0.00 0.00 0.00 37 1020.4
20260502183326 18 359 8.0 12.9 0.00 0.00 0.00 36 1020.7
20260502182821 18 7 9.7 12.9 0.00 0.00 0.00 37 1020.6
20260502182316 17 48 4.8 4.8 0.00 0.00 0.00 38 1020.7
20260502181813 17 339 9.7 14.5 0.00 0.00 0.00 38 1020.8
20260502181312 17 25 4.8 9.7 0.00 0.00 0.00 39 1020.9
20260502180809 17 47 6.4 9.7 0.00 0.00 0.00 39 1020.8
20260502180306 18 43 9.7 12.9 0.00 0.00 0.00 37 1020.9
20260502170220 17 103 1.6 1.6 0.00 0.00 0.00 39 1021.1
20260502164207 17 24 8.0 9.7 0.00 0.00 0.00 38 1021.2
20260502163702 16 127 1.6 3.2 0.00 0.00 0.00 39 1021.3
20260502163159 16 160 9.7 11.3 0.00 0.00 0.00 40 1021.2
20260502162656 17 229 3.2 4.8 0.00 0.00 0.00 38 1021.2
20260502162153 16 209 6.4 8.0 0.00 0.00 0.00 39 1021.2
20260502161650 16 303 3.2 3.2 0.00 0.00 0.00 39 1021.3
20260502161147 16 216 4.8 4.8 0.00 0.00 0.00 41 1021.3
20260502160645 15 321 6.4 9.7 0.00 0.00 0.00 41 1021.4
20260502160144 15 253 0.0 0.0 0.00 0.00 0.00 41 1021.5
20260502152057 13 348 11.3 11.3 0.00 0.00 0.00 43 1021.4
20260502151554 13 351 3.2 4.8 0.00 0.00 0.00 44 1021.2
20260502151052 14 13 4.8 8.0 0.00 0.00 0.00 44 1021.3
20260502150549 13 348 3.2 3.2 0.00 0.00 0.00 44 1021.3
20260502130434 10 16 4.8 4.8 0.00 0.00 0.00 54 1020.4
20260502123417 9 20 6.4 8.0 0.00 0.00 0.00 55 1020.1
20260502122914 9 29 8.0 9.7 0.00 0.00 0.00 54 1020.0
20260502122410 9 40 8.0 8.0 0.00 0.00 0.00 54 1019.9
20260502121909 9 12 4.8 4.8 0.00 0.00 0.00 54 1019.8
20260502121405 8 19 9.7 11.3 0.00 0.00 0.00 55 1019.8
20260502120903 8 350 4.8 4.8 0.00 0.00 0.00 54 1019.6
20260502120358 8 25 3.2 3.2 0.00 0.00 0.00 55 1019.6
20260502115856 7 341 4.8 4.8 0.00 0.00 0.00 58 1019.6
20260502115353 6 348 4.8 4.8 0.00 0.00 0.00 60 1019.8
20260502114849 7 350 0.0 0.0 0.00 0.00 0.00 58 1019.6
20260502114346 6 330 3.2 3.2 0.00 0.00 0.00 58 1019.2
20260502113843 7 325 3.2 3.2 0.00 0.00 0.00 58 1019.1
20260502113341 7 349 3.2 3.2 0.00 0.00 0.00 58 1019.1
20260502112839 6 346 3.2 4.8 0.00 0.00 0.00 59 1019.0
20260502112336 6 310 1.6 1.6 0.00 0.00 0.00 60 1019.1
20260502111834 6 310 0.0 1.6 0.00 0.00 0.00 60 1019.0
20260502111331 6 313 0.0 0.0 0.00 0.00 0.00 59 1018.7
20260502110828 6 326 1.6 1.6 0.00 0.00 0.00 58 1018.7
20260502110326 7 334 1.6 3.2 0.00 0.00 0.00 58 1018.7
20260502105823 7 331 3.2 3.2 0.00 0.00 0.00 56 1018.6
20260502105320 8 311 1.6 1.6 0.00 0.00 0.00 55 1018.5
20260502104818 8 341 3.2 4.8 0.00 0.00 0.00 55 1018.6
20260502104315 8 324 3.2 4.8 0.00 0.00 0.00 53 1018.6
20260502103812 8 348 6.4 8.0 0.00 0.00 0.00 53 1018.6
20260502103310 8 328 4.8 4.8 0.00 0.00 0.00 52 1018.3
20260502102807 8 344 6.4 8.0 0.00 0.00 0.00 51 1018.3
20260502102306 8 340 4.8 4.8 0.00 0.00 0.00 52 1018.0
20260502101801 8 322 3.2 4.8 0.00 0.00 0.00 53 1017.9
20260502101259 8 341 4.8 4.8 0.00 0.00 0.00 54 1017.9
20260502100757 8 340 4.8 4.8 0.00 0.00 0.00 52 1017.8
20260502100256 8 318 1.6 1.6 0.00 0.00 0.00 53 1017.8
20260502091229 8 350 3.2 3.2 0.00 0.00 0.00 52 1017.4
20260502090727 7 356 3.2 3.2 0.00 0.00 0.00 55 1017.3
20260502090223 8 359 3.2 3.2 0.00 0.00 0.00 53 1017.4
20260502071119 7 155 0.0 0.0 0.00 0.00 0.00 48 1016.8
20260502070617 7 155 0.0 0.0 0.00 0.00 0.00 52 1016.9
20260502070115 7 153 0.0 0.0 0.00 0.00 0.00 48 1016.7
20260502065613 7 152 0.0 0.0 0.00 0.00 0.00 47 1016.7
20260502065110 7 152 0.0 0.0 0.00 0.00 0.00 46 1016.8
20260502064609 6 152 0.0 0.0 0.00 0.00 0.00 46 1016.9
20260502064106 7 152 0.0 0.0 0.00 0.00 0.00 46 1016.8
20260502063603 7 152 0.0 0.0 0.00 0.00 0.00 45 1016.8
20260502063101 7 152 0.0 0.0 0.00 0.00 0.00 46 1016.9
20260502062558 7 152 0.0 0.0 0.00 0.00 0.00 44 1016.8
20260502062055 7 151 0.0 0.0 0.00 0.00 0.00 44 1016.9
20260502061553 8 145 1.6 1.6 0.00 0.00 0.00 42 1017.1
20260502061050 8 140 0.0 0.0 0.00 0.00 0.00 41 1017.1
20260502060545 7 124 4.8 4.8 0.00 0.00 0.00 42 1016.8
20260502060043 7 141 1.6 1.6 0.00 0.00 0.00 43 1016.8
20260502055540 8 137 4.8 4.8 0.00 0.00 0.00 42 1016.7
20260502055038 8 112 0.0 1.6 0.00 0.00 0.00 43 1016.6
20260502054537 8 66 0.0 0.0 0.00 0.00 0.00 43 1016.4
20260502054033 8 104 1.6 3.2 0.00 0.00 0.00 45 1016.5
20260502053530 8 247 1.6 1.6 0.00 0.00 0.00 46 1016.5
20260502053028 8 274 0.0 0.0 0.00 0.00 0.00 46 1016.3
20260502052527 9 278 0.0 0.0 0.00 0.00 0.00 46 1016.4
20260502052024 9 279 0.0 0.0 0.00 0.00 0.00 45 1016.3
20260502051522 10 280 0.0 0.0 0.00 0.00 0.00 44 1016.3
20260502051020 10 291 0.0 0.0 0.00 0.00 0.00 41 1016.1
20260502050515 11 296 0.0 0.0 0.00 0.00 0.00 40 1016.3
20260502050013 11 298 1.6 1.6 0.00 0.00 0.00 38 1016.1
20260502045509 11 297 3.2 3.2 0.00 0.00 0.00 38 1016.2
20260502045007 12 313 3.2 3.2 0.00 0.00 0.00 37 1016.0
20260502044503 12 322 3.2 3.2 0.00 0.00 0.00 36 1016.2
20260502043959 12 314 1.6 1.6 0.00 0.00 0.00 36 1016.2
20260502043457 12 323 3.2 3.2 0.00 0.00 0.00 36 1016.0
20260502042956 12 300 1.6 3.2 0.00 0.00 0.00 36 1016.2
20260502042454 11 284 0.0 0.0 0.00 0.00 0.00 37 1016.0
20260502041951 11 283 1.6 1.6 0.00 0.00 0.00 37 1016.2
20260502041449 11 284 1.6 3.2 0.00 0.00 0.00 37 1016.2
20260502040945 11 282 1.6 1.6 0.00 0.00 0.00 38 1016.1
20260502040442 11 281 0.0 0.0 0.00 0.00 0.00 38 1016.2
20260502035938 11 281 0.0 0.0 0.00 0.00 0.00 37 1016.0
20260502035434 11 281 0.0 0.0 0.00 0.00 0.00 36 1016.2
20260502034933 11 281 0.0 0.0 0.00 0.00 0.00 34 1016.2
20260502034431 11 281 0.0 0.0 0.00 0.00 0.00 37 1016.0
20260502033929 11 281 0.0 0.0 0.00 0.00 0.00 38 1016.0
20260502033426 11 281 0.0 0.0 0.00 0.00 0.00 36 1015.9
20260502032923 12 282 0.0 0.0 0.00 0.00 0.00 35 1015.9
20260502032419 12 284 0.0 0.0 0.00 0.00 0.00 34 1016.0
20260502031916 12 284 0.0 0.0 0.00 0.00 0.00 37 1015.9
20260502031415 12 294 0.0 0.0 0.00 0.00 0.00 37 1015.6
20260502030913 13 283 0.0 0.0 0.00 0.00 0.00 36 1015.5
20260502030411 13 283 0.0 0.0 0.00 0.00 0.00 35 1015.6
20260502025909 13 283 0.0 0.0 0.00 0.00 0.00 34 1015.5
20260502025405 13 284 0.0 0.0 0.00 0.00 0.00 33 1015.5
20260502024903 13 298 0.0 0.0 0.00 0.00 0.00 35 1015.5
20260502024401 14 279 0.0 0.0 0.00 0.00 0.00 34 1015.3
20260502023858 15 281 0.0 1.6 0.00 0.00 0.00 32 1015.2
20260502023355 15 298 3.2 3.2 0.00 0.00 0.00 30 1015.4
20260502022854 16 266 0.0 0.0 0.00 0.00 0.00 29 1015.3
20260502022349 16 265 0.0 0.0 0.00 0.00 0.00 27 1015.2
20260502021846 17 265 0.0 0.0 0.00 0.00 0.00 26 1015.2
20260502021344 17 265 0.0 0.0 0.00 0.00 0.00 26 1015.1